TimePST,TemperatureF,Dew PointF,Humidity,Sea Level PressureIn,VisibilityMPH,Wind Direction,Wind SpeedMPH,Gust SpeedMPH,PrecipitationIn,Events,Conditions,WindDirDegrees,DateUTC
12:53 AM,32.0,32.0,100,30.08,0.5,NE,10.4,-,N/A,Fog,Fog,40,2013-12-03 08:53:00
1:08 AM,32.0,32.0,100,30.08,1.5,NE,8.1,-,N/A,,Overcast,50,2013-12-03 09:08:00
1:53 AM,32.0,32.0,100,30.09,1.5,NE,8.1,-,N/A,,Overcast,50,2013-12-03 09:53:00
2:21 AM,32.0,32.0,100,30.09,2.0,ENE,8.1,-,N/A,,Overcast,70,2013-12-03 10:21:00
2:29 AM,32.0,32.0,100,30.09,1.2,NE,6.9,-,N/A,,Overcast,40,2013-12-03 10:29:00
2:53 AM,32.0,32.0,100,30.11,1.0,NE,6.9,-,N/A,,Overcast,50,2013-12-03 10:53:00
3:12 AM,32.0,32.0,100,30.10,0.5,NE,5.8,-,N/A,Fog,Fog,50,2013-12-03 11:12:00
3:31 AM,32.0,32.0,100,30.11,0.2,ENE,5.8,-,N/A,Fog,Fog,60,2013-12-03 11:31:00
3:40 AM,32.0,32.0,100,30.11,0.5,NE,8.1,-,N/A,Fog,Fog,40,2013-12-03 11:40:00
3:53 AM,32.0,32.0,100,30.13,0.8,NE,8.1,-,N/A,,Mist,50,2013-12-03 11:53:00
4:06 AM,32.0,32.0,100,30.12,1.2,NE,5.8,-,N/A,,Overcast,50,2013-12-03 12:06:00
4:24 AM,32.0,32.0,100,30.13,3.0,NE,6.9,-,N/A,,Overcast,50,2013-12-03 12:24:00
4:53 AM,32.0,32.0,100,30.14,9.0,NE,8.1,-,N/A,,Overcast,50,2013-12-03 12:53:00
5:33 AM,32.0,32.0,100,30.14,8.0,ENE,3.5,-,N/A,,Scattered Clouds,60,2013-12-03 13:33:00
5:53 AM,32.0,30.9,96,30.16,8.0,NE,5.8,-,N/A,,Clear,50,2013-12-03 13:53:00
6:53 AM,30.9,30.0,96,30.17,8.0,ENE,8.1,-,N/A,,Clear,70,2013-12-03 14:53:00
7:53 AM,30.9,30.0,96,30.19,7.0,NE,8.1,-,N/A,,Clear,50,2013-12-03 15:53:00
8:53 AM,33.1,28.0,82,30.21,8.0,NE,6.9,-,N/A,,Clear,40,2013-12-03 16:53:00
9:53 AM,35.1,28.0,76,30.23,8.0,NE,8.1,-,N/A,,Clear,50,2013-12-03 17:53:00
10:53 AM,37.0,27.0,67,30.26,8.0,NE,11.5,18.4,N/A,,Clear,50,2013-12-03 18:53:00
11:53 AM,39.0,28.0,65,30.25,8.0,NE,8.1,18.4,N/A,,Clear,50,2013-12-03 19:53:00
12:53 PM,39.9,30.0,68,30.24,7.0,East,13.8,-,N/A,,Clear,80,2013-12-03 20:53:00
1:53 PM,42.1,28.0,58,30.25,8.0,North,5.8,-,N/A,,Clear,10,2013-12-03 21:53:00
2:53 PM,43.0,28.0,56,30.25,8.0,North,3.5,-,N/A,,Clear,10,2013-12-03 22:53:00
3:53 PM,41.0,27.0,57,30.26,8.0,NNE,3.5,-,N/A,,Clear,20,2013-12-03 23:53:00
4:53 PM,36.0,28.9,76,30.28,9.0,NNE,3.5,-,N/A,,Clear,20,2013-12-04 00:53:00
5:53 PM,36.0,24.1,62,30.28,9.0,NNE,5.8,-,N/A,,Clear,30,2013-12-04 01:53:00
6:53 PM,32.0,25.0,75,30.29,9.0,North,3.5,-,N/A,,Clear,360,2013-12-04 02:53:00
7:53 PM,32.0,26.1,79,30.31,9.0,North,4.6,-,N/A,,Clear,360,2013-12-04 03:53:00
8:53 PM,30.0,25.0,82,30.31,9.0,NE,3.5,-,N/A,,Clear,50,2013-12-04 04:53:00
9:53 PM,28.9,26.1,89,30.32,5.0,ENE,3.5,-,N/A,,Clear,60,2013-12-04 05:53:00
10:53 PM,28.9,25.0,85,30.32,6.0,Calm,Calm,-,N/A,,Clear,0,2013-12-04 06:53:00
11:53 PM,28.9,25.0,85,30.32,6.0,ENE,3.5,-,N/A,,Clear,70,2013-12-04 07:53:00